Tracking 19280 objects as of 15-Nov-2018
HD Live streaming from Space Station
objects crossing your sky now

COSMOS 447

Track COSMOS 447 now!
10-day predictions
COSMOS 447 is classified as:


NORAD ID: 5550
Int'l Code: 1971-086D
Perigee: 1,417.6 km
Apogee: 1,520.9 km
Inclination: 74.0 °
Period: 115.1 minutes
Semi major axis: 7840 km
RCS: 0.7637 m2 (medium)
Launch date: October 13, 1971
Source: Commonwealth of Independent States (former USSR) (CIS)
Launch site: PLESETSK MISSILE AND SPACE COMPLEX (PKMTR)
aabbcc
Your satellite tracking list
Your tracking list is empty




NASA's NSSDC Master Catalog

Two Line Element Set (TLE):
1  5550U 71086D   18318.68944698 -.00000018 +00000-0 -13693-4 0  9999
2  5550 074.0305 036.7789 0065864 174.5215 286.2650 12.50577323149716
Source of the keplerian elements: AFSPC